Regional Weather Roundup
Issued by NWS

Home | Current Version | Previous Version | Text Only | Print | Product List | Glossary On
Versions: 1 2 3 4 5 6 7 8 9 10 11 12 13 14 15 16 17 18 19 20 21 22 23 24 25 26 27 28 29 30 31 32 33 34 35 36 37 38 39 40 41 42 43 44 45 46 47 48 49 50
000
ASUS45 KREV 141410
RWRNV
NEVADA REGIONAL WEATHER ROUNDUP
NATIONAL WEATHER SERVICE RENO NV
600 AM PST SUN FEB 14 2016

NOTE: "FAIR" INDICATES FEW OR NO CLOUDS BELOW 12,000 FEET WITH NO
SIGNIFICANT WEATHER AND/OR OBSTRUCTIONS TO VISIBILITY.

NVZ001-003-004-141500-
WESTERN NEVADA

CITY           SKY/WX    TMP DP  RH WIND       PRES   REMARKS
RENO           MOCLDY    38  27  64 W3        30.34R
CARSON CITY    FAIR      34  25  69 SW3       30.34R
MINDEN         FAIR      30  27  86 CALM      30.33F
SLIDE MTN        N/A     32  27  80 N17         N/A
PYRAMID LAKE     N/A     48 N/A N/A S3          N/A
FALLON         PTCLDY    36  29  75 S8        30.30R
LOVELOCK       CLOUDY    42  28  57 CALM      30.30R
HAWTHORNE      CLEAR     36  30  80 CALM      30.31R
$$

NVZ002-CAZ072-073-141500-
NORTHERN AND CENTRAL SIERRA

CITY           SKY/WX    TMP DP  RH WIND       PRES   REMARKS
S. LAKE TAHOE  CLEAR     27  22  81 CALM      30.35F
TRUCKEE        PTCLDY    27  23  86 CALM      30.37F
SQUAW VLY 8000   N/A     36  28  75 E1          N/A
SUSANVILLE     CLEAR     37  32  81 SE3       30.34R
BLUE CANYON    MOCLDY    48  29  47 N6        30.33F
MAMMOTH LAKES  FAIR      27  18  69 CALM      30.34S
BRIDGEPORT     FAIR      27  18  69 CALM      30.33R
$$

NVZ030-031-036-141500-
NORTHERN NEVADA

CITY           SKY/WX    TMP DP  RH WIND       PRES   REMARKS
ELKO           CLOUDY    32  27  81 CALM      30.26R
WINNEMUCCA     CLOUDY    46  31  55 W9        30.26S
WENDOVER       CLOUDY    28  27  93 W5        30.27R
$$

NVZ035-037-141500-
CENTRAL NEVADA

CITY           SKY/WX    TMP DP  RH WIND       PRES   REMARKS
ELY            CLOUDY    18  12  77 S13       30.25S
EUREKA           N/A     30  21  69 SW8       30.27R
$$

NVZ013-014-141500-
SOUTH CENTRAL NEVADA

CITY           SKY/WX    TMP DP  RH WIND       PRES   REMARKS
TONOPAH        MOCLDY    33  23  66 NW8       30.27F
$$

NVZ017-020-022-141500-
SOUTHERN NEVADA

CITY           SKY/WX    TMP DP  RH WIND       PRES   REMARKS
LAS VEGAS      PTCLDY    50  19  29 W3        30.08R
N. LAS VEGAS   PTCLDY    53  17  24 NW8       30.12R
NELLIS AFB     PTCLDY    42  24  48 N5        30.13R
HENDERSON      PTCLDY    45  18  34 S8        30.14R
MERCURY        PTCLDY    41  20  43 NE3       30.19R
$$



USA.gov is the U.S. government's official web portal to all federal, state and local government web resources and services.